Probability
0 0 0 0 0 0 0 0 0 0 0 0 0 0 0 0 0 0 0 0 0 0 0 0 0 0 0 0 0 0 0 0 0 1 2 3 4 5
1 0 0 0 0 0 0 0 0 0 0 0 0 0 0 0 0 0 0 0 0 0 0 0 0 0 0 0 0 0 0 0 0 0 1 2 3 4
2 1 1 0 0 0 0 0 0 0 0 0 0 0 0 0 0 0 0 0 0 0 0 0 0 0 0 0 0 0 0 0 0 0 0 1 2 2
3 3 2 1 1 1 0 0 0 0 0 0 0 0 0 0 0 0 0 0 0 0 0 0 0 0 0 0 0 0 0 0 0 0 0 0 1 1
2 3 3 3 2 2 1 0 0 0 0 0 0 0 0 0 0 0 0 0 0 0 0 0 0 0 0 0 0 0 0 0 0 0 0 0 0 0
1 1 2 3 3 3 2 1 1 0 0 0 0 0 0 0 0 0 0 0 0 0 0 0 0 0 0 0 0 0 0 0 0 0 0 0 0 0
0 0 1 1 2 2 2 2 1 1 0 0 0 0 0 0 0 0 0 0 0 0 0 0 0 0 0 0 0 0 0 0 0 0 0 0 0 0
0 0 0 0 1 1 1 1 1 1 0 0 0 0 0 0 0 0 0 0 0 0 0 0 0 0 0 0 0 0 0 0 0 0 0 0 0 0
0 0 0 0 0 0 1 1 0 0 0 0 0 0 0 0 0 0 0 0 0 0 0 0 0 0 0 0 0 0 0 0 0 0 0 0 0 0
0 0 0 0 0 0 1 2 1 0 0 0 0 0 0 0 0 0 0 0 0 0 0 0 0 0 0 0 0 0 0 0 0 0 0 0 0 0
0 0 0 0 0 0 1 2 1 0 0 0 0 0 0 0 0 0 0 0 0 0 0 0 0 0 0 0 0 0 0 0 0 0 0 0 0 0
0 0 0 0 0 0 0 1 1 0 0 0 0 0 0 0 0 0 0 0 0 0 0 0 0 0 0 0 0 0 0 0 0 0 0 0 0 0
0 0 0 0 0 0 0 0 0 0 0 0 0 0 0 0 0 0 0 0 0 0 0 0 0 0 0 0 0 0 0 0 0 0 0 0 0 0
0 0 0 0 0 0 0 0 0 0 0 0 0 0 0 0 0 0 0 0 0 0 0 0 0 0 0 0 0 0 0 0 0 0 0 0 0 0
0 0 0 0 0 0 0 0 0 0 0 0 0 0 0 0 0 0 0 0 0 0 0 0 0 0 0 0 0 0 0 0 0 0 0 0 0 0
0 0 0 0 0 0 0 0 0 0 0 0 0 0 0 0 0 0 0 0 0 0 0 0 0 0 0 0 0 0 0 0 0 0 0 0 0 0
0 0 0 0 0 0 0 0 0 0 0 0 0 0 0 0 0 0 0 0 0 0 0 0 0 0 0 0 0 0 0 0 0 0 0 0 0 0
0 0 0 0 0 0 0 0 0 0 0 0 0 0 0 0 0 0 0 0 0 0 0 0 0 0 0 0 0 0 0 0 0 0 0 0 0 0
0 0 0 0 0 0 0 0 0 0 0 0 0 0 0 0 0 0 0 0 0 0 0 0 0 0 0 0 0 0 0 0 0 0 0 0 0 0
0 0 0 0 0 0 0 0 0 0 0 0 0 0 0 0 0 0 0 0 0 0 0 0 0 0 0 0 0 0 0 0 0 0 0 0 0 0
0 0 0 0 0 0 0 0 0 0 0 0 0 0 0 0 0 0 0 0 0 0 0 0 0 0 0 0 0 0 0 0 0 0 0 0 0 0
0 0 0 0 0 0 0 0 0 0 0 0 0 0 0 0 0 0 0 0 0 0 0 0 0 0 0 0 0 0 0 0 0 0 0 0 0 0
0 0 0 0 0 0 0 0 0 0 0 0 0 0 0 0 0 0 0 0 0 0 0 0 0 0 0 0 0 0 0 0 0 0 0 0 0 0
Wind_Speed
3 4 3 3 3 3 3 3 3 2 3 2 2 2 2 2 3 2 3 4 5 5 6 6 6 6 7 7 7 7 7 8 8 9 10 10 10 10
3 3 3 3 2 3 3 3 3 3 3 2 2 2 2 2 2 2 3 4 5 6 6 6 7 6 6 6 7 7 8 8 8 9 9 10 10 10
3 4 4 3 3 3 3 3 3 3 3 2 2 2 2 2 2 2 2 3 3 5 6 7 7 7 7 7 7 8 8 8 8 8 9 10 10 11
4 4 5 3 3 3 2 3 3 2 3 3 2 1 2 2 2 2 2 2 3 4 5 6 6 6 6 7 7 8 8 7 8 9 9 10 11 12
5 5 5 4 4 3 3 3 2 2 2 2 2 1 1 1 1 2 2 2 3 3 3 4 4 5 5 5 6 7 7 8 8 8 9 9 10 11
4 5 5 5 5 5 4 4 3 2 2 2 2 1 2 1 1 1 2 2 3 3 3 3 4 5 5 5 6 6 7 7 8 8 9 9 9 9
4 5 5 6 7 5 4 4 4 3 2 2 2 2 2 1 2 1 2 2 3 2 2 2 2 3 3 5 6 7 7 7 8 8 8 9 9 9
4 4 4 5 6 7 7 7 7 5 4 3 3 3 3 3 2 2 2 1 2 1 2 3 2 3 3 3 5 7 7 7 8 8 8 8 8 9
5 4 4 4 4 4 4 5 6 7 8 6 5 5 5 4 3 3 3 3 3 2 1 3 2 3 4 4 6 7 7 7 7 8 8 7 8 9
5 5 5 5 4 4 4 3 4 4 6 5 6 6 6 5 5 4 3 3 3 3 3 3 3 3 4 4 6 7 7 8 8 8 7 8 8 8
4 5 5 5 6 5 4 4 4 3 4 5 6 6 6 6 5 3 2 2 3 2 3 3 3 3 3 4 4 6 7 8 8 7 7 7 7 7
3 4 6 6 6 6 5 5 5 4 3 2 2 3 4 5 6 6 5 3 3 3 3 3 2 2 3 2 3 3 4 6 7 7 7 6 6 4
4 4 4 6 7 7 6 5 6 5 3 3 2 3 2 3 4 5 5 5 4 4 3 3 2 2 3 3 2 3 3 2 2 3 5 5 6 5
5 4 4 5 6 6 5 6 6 4 3 2 2 3 3 3 3 3 5 6 6 6 4 4 3 3 3 4 3 2 2 2 2 2 2 3 4 5
4 5 5 5 4 4 5 6 4 3 3 3 4 4 3 3 2 2 3 4 5 6 6 6 6 4 4 4 4 3 3 2 2 2 2 2 2 2
3 3 3 4 3 3 3 3 3 4 4 4 4 3 2 2 2 2 2 2 2 3 4 5 6 6 4 5 4 4 3 3 2 2 2 3 2 3
2 1 1 2 2 2 2 2 3 3 3 3 3 2 2 2 2 1 2 2 3 3 2 2 2 4 5 4 4 4 4 3 3 2 2 3 3 3
3 2 3 3 3 3 3 3 3 3 3 3 3 3 3 2 2 2 2 2 3 3 3 2 1 2 2 3 5 5 4 3 3 3 3 3 4 3
3 3 3 4 4 3 3 3 2 2 2 3 3 3 2 2 2 2 2 2 3 3 3 2 2 2 3 4 2 4 4 3 3 3 3 3 4 4
3 4 4 4 3 3 3 3 3 2 2 2 2 2 2 2 2 2 2 3 3 3 3 2 3 3 4 4 3 2 4 3 2 3 3 2 3 4
4 4 4 4 3 3 3 3 3 3 3 2 3 3 3 3 3 3 3 3 3 3 3 3 3 3 2 2 2 2 1 2 3 3 2 2 2 2
4 4 3 4 4 4 3 3 3 3 3 3 3 3 3 3 3 3 3 3 3 2 3 2 2 1 2 2 3 3 2 1 1 2 3 3 3 3
4 3 3 3 3 3 3 4 4 3 3 3 3 3 3 3 2 2 2 2 2 2 2 2 1 1 2 2 2 2 3 2 2 1 2 2 3 4
Wind_Direction
219 220 227 235 227 224 212 200 199 244 262 259 258 262 261 256 267 263 255 243 238 241 241 242 248 247 244 240 239 241 241 241 237 233 233 236 239 241
219 220 231 235 234 225 217 216 211 216 242 247 253 275 275 271 278 266 260 260 249 247 243 242 242 242 241 239 239 239 240 241 237 234 235 237 239 241
231 227 240 234 232 229 217 214 214 208 231 261 264 279 271 279 299 288 271 260 262 254 251 247 242 240 241 244 241 239 239 237 233 233 237 241 242 242
236 235 245 236 230 224 208 210 214 210 211 247 271 283 275 271 283 290 289 274 269 257 253 250 243 240 242 245 246 241 236 235 234 235 240 244 247 246
235 237 239 224 231 225 213 213 214 212 210 217 251 265 274 275 296 298 303 298 289 275 265 257 256 249 244 246 249 242 239 240 239 239 244 248 252 251
237 236 234 225 226 221 218 214 203 198 191 195 223 253 262 263 244 269 296 303 294 289 290 279 270 257 251 249 249 244 241 242 242 243 243 245 250 253
245 242 238 232 225 217 213 208 198 199 199 204 220 236 250 239 242 239 262 291 284 268 278 281 276 263 254 251 250 247 243 241 242 244 244 243 243 246
244 252 251 242 234 223 217 212 203 199 202 206 218 224 240 235 235 234 243 273 283 269 272 279 267 264 262 253 253 249 244 241 240 243 245 245 244 244
238 245 252 248 236 218 213 214 219 218 206 200 212 225 226 219 209 224 229 237 251 264 253 269 261 265 267 263 259 250 242 242 245 245 246 247 247 246
238 235 238 247 235 210 206 215 231 228 216 210 214 224 226 219 211 220 230 247 263 247 220 252 258 262 275 268 259 254 250 248 248 249 249 246 246 247
245 238 235 240 235 207 198 216 239 252 238 221 222 228 229 224 207 194 207 232 269 262 208 235 254 269 271 264 259 255 258 257 255 255 252 247 245 245
253 247 237 233 227 206 200 205 226 242 239 235 234 242 236 229 214 208 207 217 244 258 208 218 247 262 276 259 266 269 264 258 255 250 246 242 238 239
243 248 244 232 227 220 211 212 222 226 224 226 241 249 244 233 226 218 212 211 222 241 219 206 237 233 253 282 286 280 267 264 256 248 239 238 233 226
234 239 240 234 234 229 221 219 223 221 218 221 234 245 246 247 238 228 222 222 228 242 235 214 233 229 244 267 276 286 280 270 262 262 260 242 239 236
232 232 235 237 239 232 226 223 212 205 207 220 234 240 240 244 248 246 230 228 239 243 235 221 226 232 235 254 268 272 288 289 259 254 265 263 262 247
234 233 233 237 238 234 231 226 216 212 212 226 238 244 241 239 240 234 240 239 249 254 235 225 225 225 235 244 253 263 261 268 268 259 271 272 265 251
190 201 217 219 231 234 232 233 222 207 215 221 221 231 236 241 248 230 232 229 235 254 263 247 236 236 240 245 251 255 257 258 263 266 262 276 273 262
165 209 226 222 225 229 229 234 227 220 219 216 214 217 227 236 248 239 226 231 245 255 261 260 258 258 250 242 228 249 256 264 268 257 253 262 275 271
190 225 228 226 223 221 221 224 234 230 211 203 207 211 218 228 236 243 239 241 253 260 264 253 236 236 264 284 258 216 243 266 269 268 261 258 272 282
222 229 231 227 220 218 219 222 229 226 213 211 213 212 211 220 232 240 240 244 256 263 267 256 241 234 243 266 277 268 234 244 251 265 272 274 276 281
226 228 229 226 225 224 224 221 219 221 219 214 216 217 211 218 233 243 246 248 248 251 264 271 270 252 244 238 257 267 271 236 240 250 259 267 280 282
228 226 226 225 224 225 223 217 217 221 218 218 221 221 215 217 229 236 239 246 247 251 266 280 286 245 217 233 262 281 292 304 271 263 261 249 260 271
230 230 230 228 225 222 219 215 215 219 219 219 222 223 220 221 228 232 238 247 253 262 275 291 298 262 248 246 264 282 298 308 311 307 294 285 260 263